METEOR 2-19

Satellite information

Favourite Embed

Satellite Type and Status

PAYLOADIN ORBIT

Key statistics

Satellite METEOR 2-19 at a glance.

Uptime

12905

Days in orbit

Revolutions

≈ 13.8

Per day

Orbit

LEO

Low Earth Orbit

Inclination

82.5

Latest

Satellite identification and parameters

Extended collection of information and parameters for METEOR 2-19.

Object identification

Identified? True

Debris? False

Object name: METEOR 2-19

International designator: 1990-057A

Object number (NORAD): 20670

Object ID (CCSDS): 20670

Country: COMMONWEALTH OF INDEPENDENT STATES (CIS)

Current information (Y/N): Y

RCS size: LARGE

Orbital parameters

Period: 103.98 minutes

Inclination: 82.5423 deg

SMA: 7324.78 km

Apoapsis: 958.689 km

Periapsis: 934.601 km

RAAN: 105.1485 deg

Eccentricy: 0.00164428

Argument of periapsis: 24.5463 deg

Mean anomaly: 335.6477 deg

Mean motion: 13.84876034 rev/day

Mean motion (dot): 0.00000065 rev/day2

B* drag term: 0.000044765002 1/REarth

Two-line elements (TLE)

Creation date: Oct. 26, 2025, 2:54 a.m.

Reference frame: TEME

Reference center: EARTH

Epoch: Oct. 25, 2025, 10:48 p.m. UTC

TLE line 0: 0 METEOR 2-19

TLE line 1: 1 20670U 90057A 25298.95060531 .00000065 00000-0 44765-4 0 9992

TLE line 2: 2 20670 82.5423 105.1485 0016443 24.5463 335.6477 13.84876034785219

Live tracking on map

Real-time ground track for satellite METEOR 2-19.

In-orbit conjunctions

A list of the most updated potential collisions computed for object METEOR 2-19.

Target Orbit TCA Probability of collision Miss distance Type
FENGYUN 1C DEB SSO 2025-06-03 01:41:10 0.0006226479 91.0 (m) DEBRIS
DELTA 1 DEB SSO 2025-04-13 18:00:42 0.0001123766 382.0 (m) DEBRIS
CZ-6A DEB SSO 2025-01-07 07:32:30 0.0001117326 115.0 (m) DEBRIS
SCOUT A R/B LEO 2024-10-15 18:30:39 0.0006448582 52.0 (m) ROCKET BODY
SL-16 DEB LEO 2024-08-30 14:21:59 0.0003004673 275.0 (m) DEBRIS

Associated space launch

Second generation soviet meteorological satellite

METEOR 2-19 was lifted into orbit during the mission ‘Tsiklon-3 | Meteor-2 19’, on board a Tsiklon-3 space rocket.

The launch took place on June 27, 1990, 10:30 p.m. from 32/1.

For more information about the launch, click the button.

Launch to space Tsiklon-3 | Meteor-2 19
Tsiklon-3 | Meteor-2 19

Agency: N/A

Status: Launch Successful

Launch date: June 27, 1990, 10:30 p.m. UTC

Rocket: Tsiklon-3

Launch pad: 32/1

Location: Plesetsk Cosmodrome, Russian Federation

...

Latest news about this satellite

There are no fresh news available about this satellite. Check back as we update our databases every day.


Newsletter sign-up

Weekly statistics, charts and insights to help you stay on top of the space industry.